DLH16A LEPA-EDDF

Flight info

Callsign DLH16A
Flight time 1h 46m
Altitude 32000
Route MEROS DCT LAPIT DCT CHELY DCT LUMAS DCT MAXIR DCT LUSOL DCT BODRU DCT OKTET DCT IRMAR DCT KINES DCT VANAS DCT MOBLO DCT UBIMA DCT SOSAL DCT KORED DCT BERSU N871 DITON DCT LADOL T163 EMPAX EMPAX5B
Aircraft A321/M-SDE3FGHIRWY/LB1

Departure

Time 2026-05-05 16:34
Airport Palma de Mallorca Airport (LEPA)

Arrival

Time 2026-05-05 18:20
Airport Frankfurt Main Airport (EDDF)
Time Latitude Longitude Altitude Speed Heading
2026-05-05 15:17 39.55008 2.73734 32 ft 0 kts 239°
2026-05-05 16:22 39.55017 2.73755 32 ft 4 kts 240°
2026-05-05 16:23 39.55043 2.73817 32 ft 4 kts 241°
2026-05-05 16:23 39.55053 2.73835 30 ft 4 kts 280°
2026-05-05 16:23 39.55019 2.73865 31 ft 4 kts 329°
2026-05-05 16:24 39.55011 2.73872 30 ft 0 kts 328°
2026-05-05 16:26 39.55024 2.73861 31 ft 6 kts 328°
2026-05-05 16:27 39.55065 2.73828 33 ft 8 kts 328°
2026-05-05 16:27 39.55113 2.73791 33 ft 8 kts 328°
2026-05-05 16:27 39.55165 2.73793 33 ft 8 kts 42°
2026-05-05 16:27 39.55208 2.73811 33 ft 7 kts 345°
2026-05-05 16:28 39.55253 2.73787 33 ft 7 kts 331°
2026-05-05 16:28 39.55301 2.73752 34 ft 8 kts 329°
2026-05-05 16:28 39.55351 2.73712 34 ft 9 kts 328°
2026-05-05 16:28 39.55406 2.73669 34 ft 10 kts 328°
2026-05-05 16:29 39.55465 2.73622 34 ft 10 kts 328°
2026-05-05 16:29 39.55535 2.73566 33 ft 14 kts 328°
2026-05-05 16:29 39.55620 2.73503 34 ft 12 kts 333°
2026-05-05 16:29 39.55666 2.73529 34 ft 8 kts 58°
2026-05-05 16:30 39.55707 2.73615 35 ft 13 kts 58°
2026-05-05 16:30 39.55754 2.73712 35 ft 13 kts 58°
2026-05-05 16:30 39.55801 2.73810 36 ft 13 kts 58°
2026-05-05 16:30 39.55849 2.73909 36 ft 13 kts 58°
2026-05-05 16:31 39.55897 2.74011 36 ft 14 kts 59°
2026-05-05 16:31 39.55953 2.74132 38 ft 16 kts 58°
2026-05-05 16:31 39.56012 2.74253 37 ft 16 kts 58°
2026-05-05 16:31 39.56062 2.74368 39 ft 9 kts 60°
2026-05-05 16:32 39.56096 2.74425 39 ft 8 kts 46°
2026-05-05 16:32 39.56149 2.74451 40 ft 10 kts 355°
2026-05-05 16:32 39.56224 2.74398 40 ft 14 kts 322°
2026-05-05 16:32 39.56249 2.74365 40 ft 7 kts 302°
2026-05-05 16:33 39.56243 2.74299 38 ft 8 kts 240°
2026-05-05 16:33 39.56171 2.74139 38 ft 50 kts 239°
2026-05-05 16:33 39.55866 2.73497 33 ft 116 kts 238°
2026-05-05 16:33 39.55347 2.72408 49 ft 164 kts 238°
2026-05-05 16:34 39.54753 2.71113 681 ft 169 kts 238°
2026-05-05 16:34 39.54146 2.69811 1376 ft 171 kts 237°
2026-05-05 16:34 39.53475 2.68449 1656 ft 191 kts 237°
2026-05-05 16:34 39.52743 2.66929 1976 ft 204 kts 238°
2026-05-05 16:35 39.51978 2.65318 2498 ft 209 kts 239°
2026-05-05 16:35 39.51218 2.63737 3102 ft 210 kts 239°
2026-05-05 16:35 39.50439 2.62127 3623 ft 213 kts 240°
2026-05-05 16:35 39.49556 2.60583 4164 ft 219 kts 225°
2026-05-05 16:36 39.48183 2.59504 4358 ft 242 kts 209°
2026-05-05 16:36 39.46597 2.58528 4530 ft 265 kts 208°
2026-05-05 16:36 39.44916 2.57485 5121 ft 270 kts 209°
2026-05-05 16:36 39.43195 2.56572 5940 ft 267 kts 196°
2026-05-05 16:37 39.41325 2.56660 6615 ft 278 kts 163°
2026-05-05 16:37 39.39624 2.57913 7249 ft 287 kts 142°
2026-05-05 16:37 39.38398 2.59970 7883 ft 296 kts 116°
2026-05-05 16:37 39.37975 2.62595 8498 ft 305 kts 89°
2026-05-05 16:38 39.38155 2.65333 9130 ft 308 kts 86°
2026-05-05 16:38 39.38380 2.68103 9747 ft 311 kts 86°
2026-05-05 16:38 39.38614 2.70918 10157 ft 322 kts 86°
2026-05-05 16:38 39.38855 2.73880 10281 ft 342 kts 86°
2026-05-05 16:39 39.39104 2.77023 10404 ft 361 kts 86°
2026-05-05 16:39 39.39374 2.80306 10710 ft 372 kts 83°
2026-05-05 16:39 39.40155 2.83507 11144 ft 379 kts 63°
2026-05-05 16:39 39.41711 2.86272 11624 ft 383 kts 46°
2026-05-05 16:40 39.43549 2.88777 12152 ft 386 kts 45°
2026-05-05 16:40 39.45421 2.91302 12661 ft 390 kts 45°
2026-05-05 16:40 39.47316 2.93852 13174 ft 395 kts 45°
2026-05-05 16:40 39.49221 2.96424 13681 ft 399 kts 45°
2026-05-05 16:41 39.51151 2.99034 14145 ft 402 kts 45°
2026-05-05 16:41 39.53090 3.01667 14604 ft 406 kts 45°
2026-05-05 16:41 39.55044 3.04335 15061 ft 409 kts 45°
2026-05-05 16:41 39.57004 3.07022 15522 ft 412 kts 45°
2026-05-05 16:42 39.58985 3.09735 15996 ft 415 kts 45°
2026-05-05 16:42 39.60981 3.12465 16447 ft 418 kts 45°
2026-05-05 16:42 39.62987 3.15207 16884 ft 421 kts 45°
2026-05-05 16:42 39.65013 3.17981 17349 ft 425 kts 45°
2026-05-05 16:43 39.67045 3.20768 17776 ft 428 kts 45°
2026-05-05 16:43 39.68409 3.22638 18068 ft 430 kts 45°
2026-05-05 16:43 39.70470 3.25460 18459 ft 433 kts 44°
2026-05-05 16:43 39.72554 3.28314 18809 ft 437 kts 44°
2026-05-05 16:44 39.74645 3.31182 19165 ft 440 kts 44°
2026-05-05 16:44 39.76756 3.34086 19532 ft 443 kts 45°
2026-05-05 16:44 39.78882 3.37020 19879 ft 447 kts 45°
2026-05-05 16:44 39.81015 3.39969 20221 ft 450 kts 45°
2026-05-05 16:45 39.83171 3.42950 20555 ft 453 kts 45°
2026-05-05 16:45 39.85335 3.45942 20900 ft 456 kts 45°
2026-05-05 16:45 39.87522 3.48968 21231 ft 460 kts 45°
2026-05-05 16:45 39.89714 3.52004 21567 ft 463 kts 45°
2026-05-05 16:46 39.91928 3.55070 21884 ft 466 kts 45°
2026-05-05 16:46 39.94157 3.58156 22216 ft 468 kts 45°
2026-05-05 16:46 39.96392 3.61252 22536 ft 471 kts 45°
2026-05-05 16:46 39.98646 3.64383 22874 ft 475 kts 45°
2026-05-05 16:47 40.00912 3.67541 23185 ft 478 kts 45°
2026-05-05 16:47 40.03185 3.70712 23485 ft 481 kts 45°
2026-05-05 16:47 40.05479 3.73914 23764 ft 483 kts 45°
2026-05-05 16:47 40.07755 3.77086 24036 ft 486 kts 45°
2026-05-05 16:48 40.10099 3.80347 24311 ft 488 kts 45°
2026-05-05 16:48 40.12394 3.83547 24606 ft 489 kts 45°
2026-05-05 16:48 40.14745 3.86839 24896 ft 491 kts 45°
2026-05-05 16:48 40.17078 3.90116 25171 ft 493 kts 45°
2026-05-05 16:49 40.19389 3.93364 25467 ft 495 kts 45°
2026-05-05 16:49 40.21751 3.96686 25722 ft 497 kts 45°
2026-05-05 16:49 40.24084 3.99972 25952 ft 499 kts 45°
2026-05-05 16:49 40.26480 4.03348 26222 ft 502 kts 45°
2026-05-05 16:50 40.28833 4.06660 26471 ft 504 kts 45°
2026-05-05 16:50 40.31340 4.09964 26715 ft 504 kts 37°
2026-05-05 16:50 40.34202 4.12432 26948 ft 498 kts 21°
2026-05-05 16:50 40.37432 4.13991 27175 ft 493 kts 11°
2026-05-05 16:51 40.40781 4.15265 27454 ft 495 kts 10°
2026-05-05 16:51 40.44054 4.16499 27627 ft 499 kts 10°
2026-05-05 16:51 40.47405 4.17760 27846 ft 502 kts 10°
2026-05-05 16:51 40.50760 4.19025 28078 ft 504 kts 10°
2026-05-05 16:52 40.54138 4.20304 28312 ft 505 kts 11°
2026-05-05 16:52 40.57523 4.21595 28576 ft 507 kts 11°
2026-05-05 16:52 40.60906 4.22893 28808 ft 509 kts 11°
2026-05-05 16:52 40.64314 4.24205 29031 ft 511 kts 11°
2026-05-05 16:53 40.67723 4.25518 29225 ft 513 kts 11°
2026-05-05 16:53 40.71156 4.26839 29435 ft 514 kts 11°
2026-05-05 16:53 40.74603 4.28163 29622 ft 516 kts 11°
2026-05-05 16:53 40.78049 4.29488 29815 ft 518 kts 11°
2026-05-05 16:54 40.81519 4.30820 29983 ft 520 kts 11°
2026-05-05 16:54 40.84997 4.32154 30190 ft 520 kts 11°
2026-05-05 16:54 40.88465 4.33487 30393 ft 520 kts 11°
2026-05-05 16:54 40.91945 4.34828 30617 ft 520 kts 11°
2026-05-05 16:55 40.95412 4.36171 30838 ft 520 kts 11°
2026-05-05 16:55 40.98886 4.37519 31051 ft 520 kts 11°
2026-05-05 16:55 41.02348 4.38861 31256 ft 519 kts 10°
2026-05-05 16:55 41.05820 4.40205 31506 ft 519 kts 10°
2026-05-05 16:56 41.09294 4.41553 31663 ft 520 kts 10°
2026-05-05 16:56 41.12761 4.42898 31853 ft 520 kts 10°
2026-05-05 16:56 41.16238 4.44250 32056 ft 520 kts 10°
2026-05-05 16:56 41.19713 4.45605 32262 ft 520 kts 10°
2026-05-05 16:57 41.23173 4.46957 32462 ft 519 kts 10°
2026-05-05 16:57 41.26643 4.48314 32695 ft 519 kts 11°
2026-05-05 16:57 41.30104 4.49665 32861 ft 520 kts 10°
2026-05-05 16:57 41.33578 4.51017 33044 ft 520 kts 10°
2026-05-05 16:58 41.37050 4.52371 33243 ft 519 kts 10°
2026-05-05 16:58 41.40509 4.53723 33443 ft 519 kts 10°
2026-05-05 16:58 41.43978 4.55080 33647 ft 519 kts 11°
2026-05-05 16:58 41.47431 4.56436 33876 ft 519 kts 11°
2026-05-05 16:59 41.54326 4.59157 33898 ft 516 kts 11°
2026-05-05 16:59 41.61209 4.61876 33890 ft 515 kts 11°
2026-05-05 17:00 41.68079 4.64592 33893 ft 515 kts 11°
2026-05-05 17:00 41.74797 4.67916 33892 ft 524 kts 24°
2026-05-05 17:01 41.81091 4.72895 33899 ft 526 kts 28°
2026-05-05 17:01 41.87367 4.77947 33902 ft 526 kts 28°
2026-05-05 17:02 41.93650 4.83004 33923 ft 527 kts 28°
2026-05-05 17:02 41.99936 4.88081 33913 ft 527 kts 28°
2026-05-05 17:03 42.06222 4.93164 33915 ft 528 kts 28°
2026-05-05 17:03 42.12519 4.98276 33911 ft 529 kts 28°
2026-05-05 17:04 42.18833 5.03416 33918 ft 530 kts 28°
2026-05-05 17:04 42.25141 5.08561 33917 ft 530 kts 28°
2026-05-05 17:05 42.31450 5.13721 33939 ft 531 kts 28°
2026-05-05 17:05 42.37761 5.18899 33936 ft 531 kts 28°
2026-05-05 17:06 42.44085 5.24099 33933 ft 531 kts 28°
2026-05-05 17:06 42.50402 5.29295 33947 ft 532 kts 28°
2026-05-05 17:07 42.56738 5.34508 33895 ft 532 kts 28°
2026-05-05 17:07 42.63059 5.39735 33929 ft 532 kts 28°
2026-05-05 17:08 42.69378 5.44983 33929 ft 533 kts 28°
2026-05-05 17:08 42.75697 5.50236 33928 ft 532 kts 28°
2026-05-05 17:09 42.82011 5.55501 33939 ft 532 kts 28°
2026-05-05 17:09 42.88332 5.60781 33947 ft 532 kts 28°
2026-05-05 17:10 42.94634 5.66064 33905 ft 531 kts 28°
2026-05-05 17:10 43.00887 5.71319 33867 ft 532 kts 28°
2026-05-05 17:11 43.07175 5.76605 33908 ft 530 kts 28°
2026-05-05 17:11 43.13461 5.81896 33944 ft 531 kts 28°
2026-05-05 17:12 43.19754 5.87211 33945 ft 532 kts 29°
2026-05-05 17:12 43.26059 5.92562 33940 ft 532 kts 29°
2026-05-05 17:13 43.32352 5.97924 33960 ft 533 kts 29°
2026-05-05 17:13 43.38891 6.02541 33942 ft 525 kts 14°
2026-05-05 17:14 43.45892 6.04690 33930 ft 509 kts 357°
2026-05-05 17:14 43.52940 6.05381 33947 ft 508 kts 356°
2026-05-05 17:15 43.60005 6.06093 33936 ft 509 kts 357°
2026-05-05 17:15 43.67055 6.06819 33950 ft 508 kts 356°
2026-05-05 17:16 43.74107 6.07638 33932 ft 513 kts
2026-05-05 17:16 43.81011 6.10491 33911 ft 526 kts 21°
2026-05-05 17:17 43.87594 6.14977 33937 ft 528 kts 22°
2026-05-05 17:17 43.94183 6.19468 33935 ft 527 kts 22°
2026-05-05 17:18 44.00774 6.23955 33957 ft 528 kts 22°
2026-05-05 17:18 44.07355 6.28464 33974 ft 527 kts 22°
2026-05-05 17:19 44.13926 6.32988 33958 ft 526 kts 22°
2026-05-05 17:19 44.20489 6.37520 33951 ft 526 kts 22°
2026-05-05 17:20 44.26990 6.42015 33970 ft 525 kts 22°
2026-05-05 17:20 44.33533 6.46533 33957 ft 524 kts 22°
2026-05-05 17:21 44.40058 6.51054 33916 ft 523 kts 22°
2026-05-05 17:22 44.49838 6.57873 33952 ft 523 kts 22°
2026-05-05 17:22 44.56340 6.62421 33953 ft 522 kts 22°
2026-05-05 17:23 44.62848 6.66961 33943 ft 521 kts 22°
2026-05-05 17:23 44.69334 6.71507 33949 ft 521 kts 23°
2026-05-05 17:24 44.75352 6.75678 33936 ft 517 kts 18°
2026-05-05 17:24 44.81738 6.78233 33958 ft 505 kts
2026-05-05 17:25 44.88444 6.78487 33950 ft 491 kts 349°
2026-05-05 17:25 44.95265 6.78015 33947 ft 491 kts 349°
2026-05-05 17:26 45.02092 6.77585 33950 ft 491 kts 349°
2026-05-05 17:26 45.08910 6.77155 33952 ft 491 kts 349°
2026-05-05 17:27 45.15728 6.76688 33941 ft 490 kts 349°
2026-05-05 17:27 45.22528 6.76225 33947 ft 489 kts 350°
2026-05-05 17:28 45.29319 6.75776 33949 ft 488 kts 350°
2026-05-05 17:28 45.36048 6.75340 33942 ft 487 kts 350°
2026-05-05 17:29 45.42781 6.74894 33952 ft 487 kts 350°
2026-05-05 17:29 45.49489 6.74433 33938 ft 486 kts 350°
2026-05-05 17:30 45.56203 6.73973 33924 ft 485 kts 350°
2026-05-05 17:30 45.62946 6.73505 33953 ft 485 kts 351°
2026-05-05 17:31 45.69688 6.73035 33936 ft 485 kts 351°
2026-05-05 17:31 45.75341 6.72647 33942 ft 485 kts 351°
2026-05-05 17:32 45.82079 6.72188 33958 ft 484 kts 351°
2026-05-05 17:32 45.88793 6.71734 33951 ft 483 kts 351°
2026-05-05 17:33 45.95488 6.71289 33934 ft 479 kts 351°
2026-05-05 17:33 46.02145 6.70842 33956 ft 479 kts 352°
2026-05-05 17:34 46.08793 6.70382 33950 ft 478 kts 352°
2026-05-05 17:34 46.15470 6.71300 33949 ft 489 kts 11°
2026-05-05 17:35 46.22014 6.74059 33954 ft 490 kts 13°
2026-05-05 17:35 46.28545 6.76831 33948 ft 489 kts 13°
2026-05-05 17:36 46.35083 6.79605 33949 ft 489 kts 13°
2026-05-05 17:36 46.41556 6.82348 33947 ft 488 kts 13°
2026-05-05 17:37 46.48065 6.85126 33947 ft 488 kts 13°
2026-05-05 17:37 46.54331 6.88906 33904 ft 493 kts 30°
2026-05-05 17:38 46.59580 6.95286 33907 ft 494 kts 49°
2026-05-05 17:38 46.63919 7.03050 33906 ft 495 kts 51°
2026-05-05 17:39 46.68254 7.10850 33907 ft 495 kts 51°
2026-05-05 17:39 46.72568 7.18654 33912 ft 495 kts 51°
2026-05-05 17:40 46.76883 7.26481 33929 ft 494 kts 52°
2026-05-05 17:40 46.81175 7.34305 33926 ft 493 kts 52°
2026-05-05 17:41 46.85456 7.42135 33899 ft 493 kts 52°
2026-05-05 17:41 46.89702 7.49931 33914 ft 493 kts 52°
2026-05-05 17:42 46.94002 7.57828 33933 ft 493 kts 52°
2026-05-05 17:42 46.98252 7.65677 33929 ft 491 kts 52°
2026-05-05 17:43 47.02480 7.73514 33924 ft 490 kts 52°
2026-05-05 17:43 47.06701 7.81342 33903 ft 489 kts 52°
2026-05-05 17:44 47.10881 7.89119 33912 ft 488 kts 52°
2026-05-05 17:44 47.14862 7.97162 33928 ft 485 kts 59°
2026-05-05 17:45 47.18436 8.05550 33919 ft 484 kts 59°
2026-05-05 17:45 47.22011 8.13912 33916 ft 483 kts 59°
2026-05-05 17:46 47.25573 8.22294 33909 ft 482 kts 59°
2026-05-05 17:46 47.29447 8.30344 33897 ft 483 kts 47°
2026-05-05 17:47 47.34704 8.36417 33902 ft 482 kts 27°
2026-05-05 17:47 47.40747 8.40716 33889 ft 482 kts 24°
2026-05-05 17:48 47.46794 8.44995 33911 ft 482 kts 24°
2026-05-05 17:48 47.52844 8.49316 33906 ft 482 kts 25°
2026-05-05 17:49 47.58889 8.53624 33904 ft 482 kts 25°
2026-05-05 17:49 47.64936 8.57923 33902 ft 482 kts 25°
2026-05-05 17:50 47.70979 8.62243 33921 ft 482 kts 25°
2026-05-05 17:50 47.77008 8.66590 33899 ft 481 kts 25°
2026-05-05 17:51 47.83027 8.70939 33908 ft 480 kts 25°
2026-05-05 17:51 47.89024 8.75243 33894 ft 478 kts 25°
2026-05-05 17:52 47.94993 8.79545 33896 ft 475 kts 26°
2026-05-05 17:52 48.00926 8.83839 33895 ft 473 kts 26°
2026-05-05 17:52 48.03888 8.85991 33547 ft 471 kts 26°
2026-05-05 17:53 48.06827 8.88132 33273 ft 474 kts 26°
2026-05-05 17:53 48.09821 8.90320 33012 ft 483 kts 26°
2026-05-05 17:53 48.12835 8.92525 32736 ft 480 kts 26°
2026-05-05 17:53 48.15894 8.94436 32470 ft 478 kts 18°
2026-05-05 17:54 48.19107 8.95635 32208 ft 476 kts
2026-05-05 17:54 48.22391 8.96200 31940 ft 474 kts
2026-05-05 17:54 48.25670 8.96687 31679 ft 472 kts
2026-05-05 17:54 48.28925 8.97175 31429 ft 470 kts
2026-05-05 17:55 48.32169 8.97666 31171 ft 468 kts
2026-05-05 17:55 48.35404 8.98161 30756 ft 465 kts
2026-05-05 17:55 48.38574 8.98644 30264 ft 461 kts
2026-05-05 17:55 48.41790 8.99134 29734 ft 458 kts
2026-05-05 17:56 48.44905 8.99611 29239 ft 453 kts
2026-05-05 17:56 48.48070 9.00095 28748 ft 450 kts
2026-05-05 17:56 48.51137 9.00560 28299 ft 447 kts
2026-05-05 17:56 48.54301 9.01041 27826 ft 460 kts
2026-05-05 17:57 48.57468 9.01527 27359 ft 465 kts
2026-05-05 17:57 48.60716 9.02028 26884 ft 463 kts
2026-05-05 17:57 48.63913 9.02544 26426 ft 460 kts
2026-05-05 17:57 48.67043 9.03175 25982 ft 457 kts
2026-05-05 17:58 48.70171 9.03916 25527 ft 454 kts
2026-05-05 17:58 48.73281 9.04712 25077 ft 451 kts
2026-05-05 17:58 48.76353 9.05514 24639 ft 447 kts
2026-05-05 17:58 48.79406 9.06297 24189 ft 444 kts
2026-05-05 17:59 48.82446 9.07056 23744 ft 441 kts
2026-05-05 17:59 48.85459 9.07788 23256 ft 438 kts
2026-05-05 17:59 48.88463 9.08498 22775 ft 435 kts
2026-05-05 17:59 48.91449 9.09076 22297 ft 432 kts
2026-05-05 18:00 48.94430 9.09517 21838 ft 429 kts
2026-05-05 18:00 48.97399 9.09881 21368 ft 426 kts
2026-05-05 18:00 49.00341 9.10222 20896 ft 423 kts
2026-05-05 18:00 49.03264 9.10576 20379 ft 420 kts
2026-05-05 18:01 49.06169 9.10953 19854 ft 417 kts
2026-05-05 18:01 49.09044 9.11352 19333 ft 414 kts
2026-05-05 18:01 49.11904 9.11768 18821 ft 411 kts
2026-05-05 18:01 49.14729 9.12313 18431 ft 408 kts
2026-05-05 18:02 49.17503 9.13111 18004 ft 405 kts 10°
2026-05-05 18:02 49.20259 9.13948 17365 ft 402 kts 11°
2026-05-05 18:02 49.22990 9.14809 16804 ft 399 kts 11°
2026-05-05 18:02 49.25690 9.15668 16237 ft 395 kts 10°
2026-05-05 18:03 49.28375 9.16520 15723 ft 391 kts 10°
2026-05-05 18:03 49.31028 9.17361 15466 ft 391 kts 10°
2026-05-05 18:03 49.33696 9.18205 15218 ft 391 kts 10°
2026-05-05 18:03 49.36349 9.19043 14958 ft 390 kts 10°
2026-05-05 18:04 49.39003 9.19879 14736 ft 388 kts
2026-05-05 18:04 49.41620 9.20700 14491 ft 386 kts
2026-05-05 18:04 49.44216 9.21510 14254 ft 385 kts
2026-05-05 18:04 49.46862 9.22336 14017 ft 383 kts
2026-05-05 18:05 49.49439 9.23142 13782 ft 382 kts
2026-05-05 18:05 49.52065 9.23968 13531 ft 380 kts
2026-05-05 18:05 49.54621 9.24776 13268 ft 379 kts
2026-05-05 18:05 49.57237 9.25605 13001 ft 377 kts
2026-05-05 18:06 49.59798 9.26416 12738 ft 376 kts
2026-05-05 18:06 49.61491 9.26952 12567 ft 374 kts
2026-05-05 18:06 49.64864 9.28026 12224 ft 372 kts
2026-05-05 18:06 49.67393 9.28833 11967 ft 371 kts
2026-05-05 18:07 49.69912 9.29633 11703 ft 369 kts
2026-05-05 18:07 49.72426 9.30427 11462 ft 368 kts
2026-05-05 18:07 49.74931 9.31222 11219 ft 367 kts
2026-05-05 18:07 49.77430 9.32018 10962 ft 366 kts
2026-05-05 18:08 49.79911 9.32828 10709 ft 364 kts 10°
2026-05-05 18:08 49.82357 9.33633 10471 ft 353 kts 10°
2026-05-05 18:08 49.84720 9.34365 10224 ft 341 kts 10°
2026-05-05 18:08 49.87010 9.35054 10029 ft 328 kts 10°
2026-05-05 18:09 49.89191 9.35680 9906 ft 310 kts
2026-05-05 18:09 49.91286 9.35511 9615 ft 298 kts 347°
2026-05-05 18:09 49.93300 9.34800 9151 ft 295 kts 344°
2026-05-05 18:09 49.95282 9.34039 8694 ft 293 kts 344°
2026-05-05 18:10 49.97251 9.33276 8242 ft 290 kts 344°
2026-05-05 18:10 49.99205 9.32517 7797 ft 288 kts 344°
2026-05-05 18:10 50.01134 9.31768 7513 ft 287 kts 344°
2026-05-05 18:10 50.03071 9.31015 7261 ft 286 kts 344°
2026-05-05 18:11 50.04993 9.30269 7017 ft 285 kts 345°
2026-05-05 18:11 50.06919 9.29498 6761 ft 285 kts 344°
2026-05-05 18:11 50.08830 9.28717 6416 ft 283 kts 343°
2026-05-05 18:11 50.10589 9.27463 6060 ft 277 kts 319°
2026-05-05 18:12 50.11794 9.25191 5684 ft 271 kts 297°
2026-05-05 18:12 50.12669 9.22605 5319 ft 269 kts 294°
2026-05-05 18:12 50.13496 9.20000 4979 ft 267 kts 294°
2026-05-05 18:12 50.14302 9.17422 4648 ft 264 kts 294°
2026-05-05 18:13 50.15094 9.14847 4272 ft 262 kts 290°
2026-05-05 18:13 50.15486 9.12127 4011 ft 254 kts 275°
2026-05-05 18:13 50.15662 9.09367 4015 ft 258 kts 269°
2026-05-05 18:13 50.15322 9.06651 4018 ft 257 kts 249°
2026-05-05 18:14 50.14703 9.04029 4014 ft 257 kts 249°
2026-05-05 18:14 50.14087 9.01416 4013 ft 257 kts 249°
2026-05-05 18:14 50.13473 8.98792 4011 ft 257 kts 249°
2026-05-05 18:14 50.12863 8.96179 4012 ft 257 kts 249°
2026-05-05 18:15 50.12249 8.93560 4014 ft 257 kts 249°
2026-05-05 18:15 50.11638 8.90953 4011 ft 252 kts 249°
2026-05-05 18:15 50.11057 8.88474 4010 ft 236 kts 249°
2026-05-05 18:15 50.10515 8.86168 3980 ft 218 kts 249°
2026-05-05 18:16 50.10169 8.84699 3850 ft 211 kts 249°
2026-05-05 18:16 50.09678 8.82614 3598 ft 199 kts 249°
2026-05-05 18:16 50.09217 8.80660 3335 ft 190 kts 250°
2026-05-05 18:16 50.08771 8.78769 3082 ft 182 kts 250°
2026-05-05 18:17 50.08341 8.76947 2852 ft 173 kts 250°
2026-05-05 18:17 50.07936 8.75232 2628 ft 170 kts 250°
2026-05-05 18:17 50.07529 8.73504 2385 ft 169 kts 251°
2026-05-05 18:17 50.07229 8.71760 2080 ft 165 kts 259°
2026-05-05 18:18 50.07076 8.70098 1819 ft 152 kts 262°
2026-05-05 18:18 50.06885 8.68712 1635 ft 147 kts 255°
2026-05-05 18:18 50.06605 8.67272 1396 ft 143 kts 250°
2026-05-05 18:18 50.06234 8.65833 1249 ft 144 kts 247°
2026-05-05 18:19 50.05859 8.64380 1062 ft 145 kts 249°
2026-05-05 18:19 50.05533 8.62908 839 ft 144 kts 250°
2026-05-05 18:19 50.05171 8.61455 732 ft 145 kts 248°
2026-05-05 18:19 50.04827 8.59984 615 ft 145 kts 248°
2026-05-05 18:20 50.04473 8.58522 393 ft 145 kts 249°
2026-05-05 18:20 50.04144 8.57153 350 ft 122 kts 249°
2026-05-05 18:20 50.03946 8.56317 348 ft 48 kts 250°
2026-05-05 18:20 50.03879 8.55979 351 ft 24 kts 269°
2026-05-05 18:21 50.03896 8.55756 354 ft 15 kts 280°
2026-05-05 18:21 50.03904 8.55693 346 ft 0 kts 280°
2026-05-05 18:22 50.03904 8.55690 346 ft 2 kts 280°
2026-05-05 18:22 50.03915 8.55645 350 ft 6 kts 303°
2026-05-05 18:23 50.03962 8.55641 350 ft 11 kts 29°
2026-05-05 18:23 50.04002 8.55751 354 ft 13 kts 69°
2026-05-05 18:23 50.04034 8.55886 349 ft 14 kts 70°
2026-05-05 18:23 50.04066 8.56029 346 ft 13 kts 70°
2026-05-05 18:24 50.04136 8.56086 350 ft 13 kts 344°
2026-05-05 18:24 50.04223 8.56039 346 ft 14 kts 336°
2026-05-05 18:24 50.04278 8.55975 350 ft 1 kts 321°
2026-05-05 18:24 50.04288 8.55965 351 ft 2 kts 324°
2026-05-05 18:25 50.04329 8.55935 353 ft 12 kts 340°
2026-05-05 18:25 50.04383 8.55910 352 ft 13 kts 345°
2026-05-05 18:25 50.04506 8.55914 351 ft 14 kts 17°
2026-05-05 18:25 50.04574 8.56017 350 ft 14 kts 77°
2026-05-05 18:26 50.04603 8.56171 354 ft 15 kts 71°
2026-05-05 18:26 50.04639 8.56317 348 ft 14 kts 66°
2026-05-05 18:26 50.04675 8.56466 349 ft 14 kts 71°
2026-05-05 18:26 50.04711 8.56566 353 ft 9 kts 52°
2026-05-05 18:27 50.04751 8.56646 353 ft 4 kts 54°
2026-05-05 18:27 50.04751 8.56684 353 ft 4 kts 105°
2026-05-05 18:27 50.04743 8.56713 355 ft 2 kts 114°
2026-05-05 18:27 50.04738 8.56730 353 ft 0 kts 114°